Location: Les Salelles
(44.4192°N, 4.1044°E)
Time: 16:26:21
(UTC+00:00)

SJ 16-02 - Pass Details

Date: 20 January 2021
Orbit: 607 x 615 km, 75.0° (Epoch: 26 February)

Event Time Altitude Azimuth Distance (km) Brightness Sun altitude
Rises 18:47:19 0° 212° (SSW) 2,866 5.3 -23.0°
Reaches altitude 10° 18:49:37 10° 218° (SW) 1,964 4.5 -23.4°
Maximum altitude 18:53:52 49° 293° (WNW) 794 2.2 -24.2°
Enters shadow 18:55:55 27° 354° (N) 1,177 2.7 -24.6°
